Voltar ao catálogo

NOAA 16 DEB

LostSSO
NORAD 41524·DEBRIS·🇺🇸 United States

Lançado Sep 21, 2000 de Vandenberg Space Force Base

Loading…

Próximas Passagens (próximas 24 horas)

TLE

ObsoletoSource: Space-Track

Época: Aug 27, 2016, 00:06 UTC

1 41524U 00055MY  16240.00441139  .00000241  00000-0  13866-3 0  9995
2 41524  98.8815 311.1021 0033454  61.3223 299.1308 14.18105262 17945

Acompanhe NOAA 16 DEB em tempo real com AllMySat

Download on the App Store